Location: Daouli
(14.8671°N, 3.2030°W)
Time: 02:27:19
(UTC+00:00)

SL-16 R/B - Pass Details

Date: 29 October 2020
Orbit: 842 x 846 km, 71.0° (Epoch: 02 December)

Event Time Altitude Azimuth Distance (km) Brightness Sun altitude
Rises 18:30:57 0° 166° (SSE) 3,385 5.3 -11.6°
Reaches altitude 10° 18:33:57 10° 150° (SSE) 2,452 4.4 -12.3°
Maximum altitude 18:38:06 21° 102° (ESE) 1,791 3.4 -13.3°
Enters shadow 18:39:34 19° 81° (E) 1,889 3.4 -13.7°
